Location: Friedrichshafen
(47.6598°N, 9.4819°E)
Time: 16:50:58
(UTC+01:00)

OTV 5 (USA 277) - Visible Passes

Search period start: 10 December 2018 00:00
Search period end: 20 December 2018 00:00
Orbit: 341 x 347 km, 54.5° (Epoch: 09 December)

Date Brightness Start Highest point End Pass type
(mag) Time Alt. Az. Time Alt. Az. Time Alt. Az.
10 Dec ? 06:09:01 35° N 06:09:18 36° NNE 06:12:01 10° E visible
11 Dec ? 06:31:55 32° NW 06:33:04 79° NNE 06:35:57 10° ESE visible
12 Dec ? 05:23:25 18° ENE 05:23:25 18° ENE 05:24:26 10° E visible
12 Dec ? 06:54:51 17° W 06:56:40 37° SW 06:59:21 10° SSE visible
13 Dec ? 05:46:25 39° ESE 05:46:25 39° ESE 05:48:24 10° ESE visible
13 Dec ? 07:18:27 10° W 07:20:03 14° SW 07:21:38 10° SSW visible
14 Dec ? 06:09:28 36° SSW 06:09:28 36° SSW 06:11:49 10° SSE visible
15 Dec ? 06:32:35 14° SW 06:32:35 14° SW 06:34:10 10° SSW visible
